Location: Unspecified
(0.0000°N, 0.0000°E)
Time: 09:08:03
(UTC+00:00)

A-11 Canister half - Pass Details

Date: 04 October 2023
Orbit: 1514 x 1685 km, 47.2° (Epoch: 29 November)

Event Time Altitude Azimuth Distance (km) Brightness Sun altitude
Exits shadow 02:30:07 23° 151° (SSE) 2,827 10.5 -49.5°
Drops below altitude 10° 02:33:10 10° 147° (SSE) 3,766 11.3 -48.8°
Sets 02:36:19 0° 145° (SE) 4,775 12.0 -48.0°
